Weather History for Crestview, FL

Change the Weather History Date:

Tuesday, February 19, 2013

  Actual Average Record
Temperature  
Mean Temperature 54 °F -  
Max Temperature 68 °F 67 °F 78 °F (1976)
Min Temperature 35 °F 42 °F 21 °F (2007)
Degree Days  
Heating Degree Days 12    
Growing Degree Days 4 (Base 50)    
Moisture  
Dew Point 50 °F    
Average Humidity 71    
Maximum Humidity 94    
Minimum Humidity 32    
Precipitation  
Precipitation 0.03 in - - ()
Sea Level Pressure  
Sea Level Pressure 30.10 in    
Wind  
Wind Speed 8 mph (West)    
Max Wind Speed 16 mph    
Max Gust Speed 24 mph    
Visibility 9 miles    
Events Rain    
Averages and records for this station are not official NWS values.
T = Trace of Precipitation, MM = Missing Value Source: NWS Daily Summary

Daily Weather History Graph

Daily Weather History Graph

Search for Another Location

Airport:

Trip Planner

Search our weather history database for the weather conditions in past years. The results will help you decide how hot, cold, wet, or windy it might be!

Date:

Astronomy

Feb. 19, 2013 Rise Set
Actual Time 6:22 AM CST 5:37 PM CST
Civil Twilight 5:58 AM CST 6:01 PM CST
Nautical Twilight 5:30 AM CST 6:30 PM CST
Astronomical Twilight 5:02 AM CST 6:58 PM CST
Moon 12:20 PM CST (2/19) 1:42 AM CST (2/19)
Length of Visible Light 12h 03m
Length of Day
11h 14m
Waxing Gibbous, 67% of the Moon is Illuminated
Feb 19
Waxing Gibbous
Feb 25
Full
Mar 4
Last Quarter
Mar 11
New
Mar 19
First Quarter

Hourly Weather History & Observations

Time (CST) Temp. Dew Point Humidity Pressure Visibility Wind Dir Wind Speed Gust Speed Precip Events Conditions
12:53 AM 52.0 °F 45.0 °F 77% 30.09 in 10.0 mi Calm Calm - N/A   Overcast
1:53 AM 60.1 °F 51.1 °F 72% 30.07 in 10.0 mi SSE 9.2 mph - N/A   Overcast
2:08 AM 60.8 °F 51.8 °F 72% 30.07 in 10.0 mi South 5.8 mph - N/A   Overcast
2:53 AM 62.1 °F 52.0 °F 70% 30.05 in 10.0 mi South 10.4 mph 18.4 mph N/A   Overcast
3:53 AM 63.0 °F 53.1 °F 70% 30.03 in 10.0 mi South 15.0 mph 24.2 mph N/A   Overcast
4:53 AM 64.0 °F 54.0 °F 70% 30.03 in 10.0 mi South 16.1 mph 21.9 mph N/A   Overcast
5:40 AM 62.6 °F 57.2 °F 82% 30.04 in 10.0 mi South 11.5 mph - 0.00 in   Overcast
5:49 AM 62.6 °F 57.2 °F 82% 30.04 in 10.0 mi South 8.1 mph - 0.00 in Rain Light Rain
5:53 AM 62.1 °F 57.0 °F 84% 30.04 in 7.0 mi South 9.2 mph - 0.00 in Rain Rain
6:38 AM 62.6 °F 57.2 °F 82% 30.05 in 6.0 mi South 10.4 mph - 0.01 in Rain Light Rain
6:49 AM 62.6 °F 59.0 °F 88% 30.05 in 5.0 mi SSW 11.5 mph - 0.02 in Rain Heavy Rain
6:53 AM 62.1 °F 59.0 °F 90% 30.04 in 4.0 mi South 10.4 mph - 0.02 in Rain Rain
7:16 AM 62.6 °F 60.8 °F 94% 30.06 in 4.0 mi South 10.4 mph 19.6 mph 0.01 in Rain Rain
7:36 AM 62.6 °F 60.8 °F 94% 30.07 in 7.0 mi SW 9.2 mph - 0.01 in Rain Light Rain
7:45 AM 64.4 °F 60.8 °F 88% 30.07 in 10.0 mi WSW 10.4 mph - 0.01 in Rain Light Rain
7:53 AM 64.0 °F 60.1 °F 87% 30.07 in 10.0 mi WSW 10.4 mph - 0.01 in Rain Light Rain
8:53 AM 63.0 °F 59.0 °F 87% 30.08 in 10.0 mi West 8.1 mph - 0.00 in   Overcast
9:05 AM 64.4 °F 60.8 °F 88% 30.08 in 10.0 mi West 4.6 mph - N/A   Overcast
9:16 AM 64.4 °F 60.8 °F 88% 30.09 in 10.0 mi West 4.6 mph - N/A   Overcast
9:29 AM 62.6 °F 59.0 °F 88% 30.10 in 10.0 mi WNW 6.9 mph - N/A   Overcast
9:35 AM 62.6 °F 59.0 °F 88% 30.10 in 10.0 mi NW 8.1 mph - N/A   Overcast
9:53 AM 64.0 °F 57.0 °F 78% 30.10 in 10.0 mi NNW 9.2 mph - N/A   Overcast
10:20 AM 66.2 °F 57.2 °F 73% 30.11 in 10.0 mi NNW 6.9 mph - N/A   Overcast
10:36 AM 66.2 °F 55.4 °F 68% 30.12 in 10.0 mi NW 10.4 mph - N/A   Overcast
10:53 AM 64.0 °F 54.0 °F 70% 30.12 in 10.0 mi NW 13.8 mph 20.7 mph N/A   Overcast
11:29 AM 64.4 °F 53.6 °F 68% 30.12 in 10.0 mi NW 12.7 mph 18.4 mph N/A   Overcast
12:40 PM 64.4 °F 51.8 °F 64% 30.12 in 10.0 mi NW 12.7 mph - N/A   Overcast
12:53 PM 63.0 °F 51.1 °F 65% 30.12 in 10.0 mi NNW 10.4 mph - N/A   Overcast
1:35 PM 64.4 °F 48.2 °F 56% 30.11 in 10.0 mi North 9.2 mph 19.6 mph N/A   Scattered Clouds
1:53 PM 66.0 °F 46.9 °F 50% 30.10 in 10.0 mi NNW 13.8 mph 18.4 mph N/A   Clear
2:53 PM 68.0 °F 43.0 °F 40% 30.10 in 10.0 mi North 9.2 mph - N/A   Clear
3:53 PM 68.0 °F 37.9 °F 33% 30.10 in 10.0 mi NNW 12.7 mph 16.1 mph N/A   Clear
4:53 PM 64.9 °F 34.0 °F 32% 30.12 in 10.0 mi NNW 6.9 mph - N/A   Clear
6:53 PM 55.9 °F 28.9 °F 36% 30.16 in 10.0 mi North 3.5 mph - N/A   Clear
7:53 PM 54.0 °F 28.9 °F 38% 30.18 in 10.0 mi North 5.8 mph - N/A   Clear
8:53 PM 51.1 °F 24.1 °F 35% 30.19 in 10.0 mi NNW 5.8 mph - N/A   Clear
9:53 PM 42.1 °F 30.9 °F 65% 30.20 in 10.0 mi Calm Calm - N/A   Clear
10:53 PM 39.9 °F 30.0 °F 68% 30.20 in 10.0 mi Calm Calm - N/A   Clear
11:53 PM 35.1 °F 30.0 °F 82% 30.20 in 10.0 mi Calm Calm - N/A   Clear